Hillsboro, TX

9:47 AM CST on December 13, 2017 (GMT -0600)
Hillsboro

Weather History for KINJ - March, 2013

Change the Weather History Date:

Sunday, March 3, 2013

  Actual Average (KACT) Record (KACT)
Temperature  
Mean Temperature 52 °F -  
Max Temperature 71 °F 62 °F 83 °F (1974)
Min Temperature 33 °F 41 °F 15 °F (1943)
Degree Days  
Heating Degree Days 13    
Growing Degree Days 2 (Base 50)    
Moisture  
Dew Point 29 °F    
Average Humidity 42    
Maximum Humidity 70    
Minimum Humidity 25    
Precipitation  
Precipitation 0.00 in - - ()
Sea Level Pressure  
Sea Level Pressure 30.06 in    
Wind  
Wind Speed 11 mph (SSE)    
Max Wind Speed 28 mph    
Max Gust Speed 33 mph    
Visibility 10 miles    
Events      
Averages and records for this station are not official NWS values.
T = Trace of Precipitation, MM = Missing Value Source: NWS Daily Summary

Daily Weather History Graph

Daily Weather History Graph

Search for Another Location

Airport or City:

Trip Planner

Search our weather history database for the weather conditions in past years. The results will help you decide how hot, cold, wet, or windy it might be!

Date:

Astronomy

Mar. 03, 2013 Rise Set
Actual Time 6:53 AM CST 6:27 PM CST
Civil Twilight 6:28 AM CST 6:52 PM CST
Nautical Twilight 6:00 AM CST 7:20 PM CST
Astronomical Twilight 5:31 AM CST 7:49 PM CST
Moon No Moon Rise 10:32 AM CST (3/3)
Length of Visible Light 12h 23m
Length of Day
11h 34m
Waning Gibbous, 63% of the Moon is Illuminated
Mar 3
Waning Gibbous
Mar 4
Last Quarter
Mar 11
New
Mar 19
First Quarter
Mar 27
Full

Hourly Weather History & Observations

Time (CST) Temp. Windchill Dew Point Humidity Pressure Visibility Wind Dir Wind Speed Gust Speed Precip Events Conditions
12:15 AM 41.0 °F 38.0 °F 23.0 °F 49% 30.25 in 10.0 mi SE 4.6 mph - N/A   Clear
12:35 AM 37.4 °F 33.8 °F 23.0 °F 56% 30.24 in 10.0 mi SSE 4.6 mph - N/A   Clear
12:55 AM 39.2 °F - 23.0 °F 52% 30.24 in 10.0 mi Calm Calm - N/A   Clear
1:35 AM 35.6 °F - 23.0 °F 60% 30.24 in 10.0 mi Calm Calm - N/A   Clear
1:55 AM 33.8 °F - 23.0 °F 65% 30.23 in 10.0 mi Calm Calm - N/A   Clear
2:15 AM 35.6 °F - 23.0 °F 60% 30.23 in 10.0 mi Calm Calm - N/A   Clear
2:35 AM 33.8 °F - 23.0 °F 65% 30.23 in 10.0 mi Calm Calm - N/A   Clear
2:55 AM 33.8 °F - 23.0 °F 65% 30.23 in 10.0 mi Calm Calm - N/A   Clear
3:15 AM 33.8 °F 29.6 °F 23.0 °F 65% 30.21 in 10.0 mi SE 4.6 mph - N/A   Clear
3:35 AM 33.8 °F 27.7 °F 23.0 °F 65% 30.20 in 10.0 mi SSE 6.9 mph - N/A   Clear
3:55 AM 33.8 °F 28.6 °F 24.8 °F 70% 30.20 in 10.0 mi SSE 5.8 mph - N/A   Clear
4:15 AM 35.6 °F 30.7 °F 23.0 °F 60% 30.19 in 10.0 mi SSE 5.8 mph - N/A   Clear
4:35 AM 33.8 °F 28.6 °F 23.0 °F 65% 30.20 in 10.0 mi SSE 5.8 mph - N/A   Clear
4:55 AM 35.6 °F 29.9 °F 23.0 °F 60% 30.20 in 10.0 mi SE 6.9 mph - N/A   Clear
5:15 AM 37.4 °F 32.1 °F 23.0 °F 56% 30.20 in 10.0 mi SSE 6.9 mph - N/A   Clear
5:35 AM 35.6 °F 29.2 °F 23.0 °F 60% 30.20 in 10.0 mi SSE 8.1 mph - N/A   Clear
5:55 AM 37.4 °F 31.4 °F 23.0 °F 56% 30.20 in 10.0 mi SSE 8.1 mph - N/A   Clear
6:15 AM 37.4 °F 30.8 °F 23.0 °F 56% 30.20 in 10.0 mi SSE 9.2 mph - N/A   Clear
6:35 AM 37.4 °F 30.3 °F 23.0 °F 56% 30.20 in 10.0 mi South 10.4 mph - N/A   Clear
6:55 AM 39.2 °F 32.5 °F 23.0 °F 52% 30.19 in 10.0 mi SSE 10.4 mph - N/A   Clear
7:15 AM 41.0 °F 34.3 °F 23.0 °F 49% 30.19 in 10.0 mi SSE 11.5 mph - N/A   Clear
7:35 AM 42.8 °F 36.2 °F 23.0 °F 46% 30.19 in 10.0 mi SSE 12.7 mph - N/A   Clear
7:55 AM 42.8 °F 36.2 °F 23.0 °F 46% 30.19 in 10.0 mi SSE 12.7 mph - N/A   Clear
8:15 AM 44.6 °F 38.1 °F 23.0 °F 43% 30.19 in 10.0 mi SSE 13.8 mph - N/A   Clear
8:35 AM 46.4 °F 39.2 °F 23.0 °F 40% 30.19 in 10.0 mi South 18.4 mph 24.2 mph N/A   Clear
8:55 AM 48.2 °F - 23.0 °F 37% 30.19 in 10.0 mi South 20.7 mph 26.5 mph N/A   Clear
9:15 AM 50.0 °F - 24.8 °F 37% 30.18 in 10.0 mi SSE 16.1 mph 23.0 mph N/A   Clear
9:35 AM 51.8 °F - 24.8 °F 35% 30.18 in 10.0 mi South 19.6 mph - N/A   Clear
9:55 AM 53.6 °F - 24.8 °F 33% 30.17 in 10.0 mi South 20.7 mph 29.9 mph N/A   Clear
10:15 AM 53.6 °F - 24.8 °F 33% 30.16 in 10.0 mi South 20.7 mph 27.6 mph N/A   Clear
10:35 AM 55.4 °F - 26.6 °F 33% 30.15 in 10.0 mi South 21.9 mph 25.3 mph N/A   Clear
10:55 AM 57.2 °F - 26.6 °F 31% 30.14 in 10.0 mi South 21.9 mph 26.5 mph N/A   Clear
11:15 AM 59.0 °F - 26.6 °F 29% 30.13 in 10.0 mi South 18.4 mph 25.3 mph N/A   Clear
11:35 AM 60.8 °F - 28.4 °F 29% 30.11 in 10.0 mi South 23.0 mph 27.6 mph N/A   Clear
11:55 AM 60.8 °F - 28.4 °F 29% 30.10 in 10.0 mi South 17.3 mph 27.6 mph N/A   Clear
12:15 PM 62.6 °F - 30.2 °F 30% 30.09 in 10.0 mi South 18.4 mph 25.3 mph N/A   Clear
12:35 PM 64.4 °F - 30.2 °F 28% 30.08 in 10.0 mi South 18.4 mph 26.5 mph N/A   Clear
12:55 PM 64.4 °F - 30.2 °F 28% 30.06 in 10.0 mi South 19.6 mph 26.5 mph N/A   Clear
1:15 PM 66.2 °F - 30.2 °F 26% 30.04 in 10.0 mi South 17.3 mph 31.1 mph N/A   Clear
1:35 PM 68.0 °F - 32.0 °F 26% 30.03 in 10.0 mi South 17.3 mph 26.5 mph N/A   Clear
1:55 PM 68.0 °F - 32.0 °F 26% 30.02 in 10.0 mi South 19.6 mph 25.3 mph N/A   Clear
2:35 PM 69.8 °F - 32.0 °F 25% 29.98 in 10.0 mi SSE 20.7 mph 26.5 mph N/A   Clear
2:55 PM 69.8 °F - 32.0 °F 25% 29.97 in 10.0 mi SSE 21.9 mph 29.9 mph N/A   Clear
3:35 PM 71.6 °F - 33.8 °F 25% 29.94 in 10.0 mi SSE 25.3 mph 31.1 mph N/A   Clear
4:15 PM 71.6 °F - 33.8 °F 25% 29.92 in 10.0 mi South 27.6 mph 33.4 mph N/A   Clear
4:35 PM 71.6 °F - 33.8 °F 25% 29.90 in 10.0 mi SSE 24.2 mph 33.4 mph N/A   Clear
4:55 PM 69.8 °F - 33.8 °F 27% 29.90 in 10.0 mi SSE 24.2 mph 29.9 mph N/A   Clear
5:15 PM 68.0 °F - 33.8 °F 28% 29.90 in 10.0 mi SSE 20.7 mph 25.3 mph N/A   Clear
5:35 PM 69.8 °F - 33.8 °F 27% 29.89 in 10.0 mi SSE 16.1 mph 25.3 mph N/A   Clear
5:55 PM 68.0 °F - 32.0 °F 26% 29.88 in 10.0 mi SSE 24.2 mph 27.6 mph N/A   Clear
6:15 PM 68.0 °F - 33.8 °F 28% 29.89 in 10.0 mi SSE 15.0 mph 23.0 mph N/A   Clear
6:35 PM 66.2 °F - 32.0 °F 28% 29.88 in 10.0 mi South 17.3 mph 23.0 mph N/A   Clear
6:55 PM 64.4 °F - 32.0 °F 30% 29.88 in 10.0 mi SSE 15.0 mph - N/A   Clear
7:15 PM 64.4 °F - 32.0 °F 30% 29.88 in 10.0 mi SSE 16.1 mph 23.0 mph N/A   Clear
7:35 PM 64.4 °F - 32.0 °F 30% 29.87 in 10.0 mi SSE 18.4 mph 24.2 mph N/A   Clear
7:55 PM 62.6 °F - 33.8 °F 34% 29.86 in 10.0 mi SSE 18.4 mph - N/A   Clear
8:15 PM 62.6 °F - 33.8 °F 34% 29.86 in 10.0 mi SSE 18.4 mph - N/A   Clear
8:35 PM 62.6 °F - 35.6 °F 37% 29.86 in 10.0 mi SSE 19.6 mph 27.6 mph N/A   Clear
8:55 PM 62.6 °F - 35.6 °F 37% 29.86 in 10.0 mi SSE 20.7 mph 26.5 mph N/A   Clear
9:15 PM 62.6 °F - 35.6 °F 37% 29.86 in 10.0 mi SSE 16.1 mph 24.2 mph N/A   Clear
9:35 PM 62.6 °F - 35.6 °F 37% 29.85 in 10.0 mi SSE 19.6 mph 31.1 mph N/A   Clear
9:55 PM 62.6 °F - 37.4 °F 39% 29.86 in 10.0 mi South 23.0 mph 29.9 mph N/A   Clear
10:15 PM 60.8 °F - 37.4 °F 42% 29.85 in 10.0 mi SSE 19.6 mph 25.3 mph N/A   Clear
10:35 PM 60.8 °F - 37.4 °F 42% 29.85 in 10.0 mi SSE 19.6 mph - N/A   Clear
10:55 PM 59.0 °F - 39.2 °F 48% 29.85 in 10.0 mi South 25.3 mph 29.9 mph N/A   Clear
11:15 PM 59.0 °F - 41.0 °F 51% 29.85 in 10.0 mi South 23.0 mph 31.1 mph N/A   Clear
11:35 PM 59.0 °F - 41.0 °F 51% 29.84 in 10.0 mi South 23.0 mph 31.1 mph N/A   Clear
11:55 PM 59.0 °F - 41.0 °F 51% 29.84 in 10.0 mi South 24.2 mph 31.1 mph N/A   Clear